Location: Raleigh
(35.7720°N, 78.6390°W)
Time: 14:58:43
(UTC-04:00)

JAS-2 - Visible Passes

Search period start: 26 June 2016 00:00
Search period end: 06 July 2016 00:00
Orbit: 800 x 1321 km, 98.6° (Epoch: 25 June)

Date Brightness Start Highest point End Pass type
(mag) Time Alt. Az. Time Alt. Az. Time Alt. Az.
26 Jun 10.5 01:15:19 10° NE 01:19:19 29° ENE 01:19:19 29° ENE visible
26 Jun 10.4 03:00:29 10° N 03:05:13 28° WNW 03:05:48 27° WNW visible
27 Jun 9.3 02:04:49 10° NNE 02:09:58 74° N 02:09:58 74° N visible
28 Jun 10.7 01:10:29 10° NE 01:14:08 26° ENE 01:14:08 26° ENE visible
28 Jun 10.3 02:55:27 10° N 03:00:14 30° WNW 03:00:37 29° WNW visible
29 Jun 9.3 01:59:52 10° NNE 02:04:47 70° NNE 02:04:47 70° NNE visible
29 Jun 11.5 03:49:00 10° NW 03:49:33 10° WNW 03:50:06 10° WNW visible
30 Jun 10.8 01:05:40 10° NE 01:08:57 23° ENE 01:08:57 23° ENE visible
30 Jun 10.2 02:50:25 10° N 02:55:15 32° WNW 02:55:26 32° WNW visible
01 Jul 9.4 01:54:55 10° NNE 01:59:36 64° NE 01:59:36 64° NE visible
01 Jul 11.4 03:43:13 10° NW 03:44:37 11° WNW 03:46:00 10° WNW visible
02 Jul 10.9 01:00:51 10° NE 01:03:46 21° ENE 01:03:46 21° ENE visible
02 Jul 10.1 02:45:22 10° N 02:50:14 34° WNW 02:50:14 34° WNW visible
03 Jul 9.6 01:49:57 10° NNE 01:54:24 58° NE 01:54:24 58° NE visible
03 Jul 11.3 03:37:45 10° NW 03:39:40 12° WNW 03:40:53 11° WNW visible
04 Jul 11.1 00:56:02 10° NE 00:58:34 19° ENE 00:58:34 19° ENE visible
04 Jul 10.0 02:40:19 10° N 02:45:02 37° WNW 02:45:02 37° WNW visible
05 Jul 9.7 01:44:59 10° NNE 01:49:12 52° NE 01:49:12 52° NE visible
05 Jul 11.2 03:32:24 10° NW 03:34:42 13° WNW 03:35:41 12° WNW visible
